www.pogodaiklimat.ru

Погода и климат >> Архив погоды >> Аргентина >> Сан-Хуан


ПОГОДА в Сан-Хуане

  • Прогноз погоды в Сан-Хуане
  • Монитор погоды в Сан-Хуане

АРХИВ ПОГОДЫ в Сан-Хуане

Время (UTC), дата Ветер
(напр.,м/с)
 
Видим.   Явления Облачность Т
(С)
Тd
(С)
f
(%)
Тe
(С)
Тes
(С)
Комфортность P
(гПа)
Po
(гПа)
Тmin
(С)
Tmax
(С)
R
(мм)
R24
(мм)
S
(см)
03 15.04 ЮВ 4 15 км 4/0
[Ac cast]
+20.7 +11.6 56 +23 +23 комфорт 1013.0 945.8
06 15.04 Ю 5 15 км ясно +18.5 +7.7 49 +18 +18 1013.4 946.2
09 15.04 Ю 4 15 км 5/0
[Ac As]
+16.8 +4.0 43 +16 +16 1015.6 948.2
12 15.04 Ю 8 15 км 9/0
[Ac As]
+17.3 +2.1 36 +16 +16 1019.6 951.4 +15.6 +22.6
15 15.04 Ю 11 15 км 3/0
[Ci]
+21.6 +3.8 31 +22 +22 комфорт 1021.5 953.4
18 15.04 Ю 5 15 км 4/0
[Cs]
+23.9 +6.2 32 +24 +29 комфорт 1018.9 951.0
21 15.04 Ю 6 15 км ясно +24.3 +6.5 32 +24 +25 комфорт 1018.2 950.2
00 16.04 Ю 3 15 км 1/0
[Cs]
+19.5 +7.6 46 +21 +21 комфорт 1019.8 951.3 +17.3 +25.2
03 16.04 Ю 3 15 км 5/0
[Ac As]
+16.3 +7.6 56 +16 +16 1020.5 952.1
06 16.04 ЮЗ 2 15 км ясно +14.0 +8.4 69 +14 +14 1019.3 951.0
09 16.04 штиль 0 15 км ясно +12.0 +8.5 79 +12 +12 1017.3 949.0
12 16.04 штиль 0 15 км ясно +13.2 +8.1 71 +13 +14 1017.6 948.8 +9.6 +19.5
15 16.04 С 3 15 км ясно +22.1 +10.7 48 +24 +33 комфорт 1015.4 947.4
18 16.04 СВ 7 15 км ясно +28.0 +11.9 37 +29 +32 жарко 1009.9 942.6
21 16.04 Ю 4 15 км ясно +28.0 +10.8 34 +29 +29 жарко 1008.1 940.8
00 17.04 ЮЗ 3 15 км 8/0
[Cs]
+21.6 +11.1 51 +23 +23 комфорт 1009.7 941.7 +13.2 +29.5
03 17.04 ЮЗ 3 15 км 6/0
[Cs]
+17.5 +11.9 70 +18 +18 1010.4 942.9
06 17.04 Ю 2 15 км 1/0
[Cs]
+14.8 +11.6 81 +14 +14 1010.6 943.4
12 17.04 ЮЗ 3 15 км 1/0
[Ci fib]
+13.9 +11.2 84 +13 +13 1012.8 944.6 +12.0 +22.0
15 17.04 Ю 3 15 км ясно +22.5 +12.7 54 +25 +34 комфорт 1012.5 944.9
18 17.04 Ю 2 15 км ясно +27.0 +13.1 42 +29 +40 жарко 1008.7 941.4
21 17.04 Ю 4 15 км ясно +28.0 +10.5 34 +29 +29 жарко 1007.4 940.2
00 18.04 Ю 4 15 км ясно +22.2 +10.6 48 +24 +24 комфорт 1009.4 941.6 +13.9 +28.5
03 18.04 З 3 15 км ясно +18.0 +11.6 66 +18 +18 1010.0 942.6
06 18.04 Ю 3 15 км ясно +16.5 +12.5 77 +16 +16 1009.7 942.6
09 18.04 З 2 15 км 1/0
[Ci fib]
+12.4 +11.3 93 +12 +12 1009.2 941.8
12 18.04 З 2 15 км 4/0
[Ci]
+13.6 +11.8 89 +13 +14 1010.8 942.8 +11.8 +22.0
15 18.04 Ю 3 15 км 4/0
[Ci]
+20.6 +14.3 67 +24 +32 комфорт 1009.9 942.2
18 18.04 Ю 6 15 км 4/0
[Ci]
+26.0 +13.1 45 +28 +32 жарко 1006.1 939.0
21 18.04 Ю 6 15 км 5/0
[Ci]
+26.8 +12.0 40 +28 +29 жарко 1006.1 938.8
00 19.04 Ю 4 15 км 5/0
[Cs]
+21.6 +12.4 56 +24 +24 комфорт 1008.6 940.6 +13.6 +27.6
03 19.04 ЮЗ 3 15 км 6/0
[Cs]
+19.4 +12.1 63 +21 +21 комфорт 1009.8 942.4
06 19.04 Ю 2 15 км 8/0
[Cs]
+17.2 +11.5 69 +18 +18 1009.2 942.2
09 19.04 Ю 2 15 км 9/0
[Cs]
+15.0 +11.4 79 +15 +15 1009.8 942.6
12 19.04 Ю 3 15 км 5/0
[Ac As Cs]
+15.4 +11.6 78 +15 +16 1012.3 944.4 +13.4 +22.0
15 19.04 Ю 4 15 км 5/0
[Ac cuf Ci]
+23.8 +15.1 58 +27 +31 жарко 1011.7 944.5
18 19.04 ЮЗ 2 15 км 6/4 1050 м
[Cu hum Ac cast Ci]
+27.0 +12.9 42 +29 +34 жарко 1007.8 941.0
21 19.04 Ю 2 15 км 4/1 1050 м
[Cu hum Ci]
+27.7 +11.3 36 +29 +29 жарко 1007.4 940.4
00 20.04 Ю 2 15 км 3/0
[]
+21.0 +12.4 58 +24 +24 комфорт 1009.8 940.0 +15.4 +28.0
03 20.04 Ю 2 15 км 6/0
[Ac trans]
+19.5 +11.2 59 +22 +22 комфорт 1011.1 943.8
06 20.04 Ю 3 15 км 10/0
[Ac As]
+19.1 +12.1 64 +20 +20 1010.9 944.1
09 20.04 В 3 15 км 9/0
[Ac As]
+19.2 +12.1 63 +20 +20 1011.2 944.4
12 20.04 ЮВ 5 15 км 6/3 1500 м
[Sc Ac As]
+19.0 +12.4 66 +20 +20 1013.9 946.2 +18.0 +21.5
15 20.04 Ю 9 15 км 5/0
[Ac As]
+23.8 +13.1 51 +26 +27 жарко 1014.2 946.8
18 20.04 Ю 8 15 км 5/0
[Ac cast]
+26.6 +10.3 36 +27 +29 жарко 1010.8 943.8
21 20.04 Ю 8 15 км 6/0
[Ac cast Ci]
+24.6 +8.1 35 +25 +25 комфорт 1010.9 943.8
00 21.04 Ю 7 15 км 6/0
[Ac As Ci]
+22.2 +5.1 33 +23 +23 комфорт 1012.8 945.3 +19.0 +27.3
03 21.04 Ю 6 15 км 9/0
[Ac As]
+20.4 +4.7 36 +21 +21 комфорт 1013.2 946.0
06 21.04 Ю 3 15 км 9/0
[Ac As]
+19.0 +5.1 40 +20 +20 1014.1 947.0
09 21.04 Ю 3 15 км 9/0
[Ac As]
+17.0 +3.4 40 +17 +17 1014.0 946.5
12 21.04 ЮВ 3 15 км 9/0
[Ac As]
+16.2 +4.8 47 +16 +16 1016.0 948.0 +15.5 +22.2
15 21.04 Ю 4 15 км 9/0
[Ac trans]
+19.4 +4.0 36 +20 +23 1016.1 948.2
18 21.04 Ю 7 15 км 9/0
[Ac trans]
+22.8 +1.7 25 +22 +24 комфорт 1013.4 945.8
21 21.04 Ю 6 15 км 9/0
[Ac As]
+21.9 +4.3 32 +22 +22 комфорт 1012.9 945.0
00 22.04 Ю 4 15 км 10/10 900 м
[Sc]
+19.0 +9.3 53 +20 +20 1015.2 946.9 +16.2 +24.2

 

Местоположение метеостанции Сан-Хуан (Аргентина): широта -31.40 долгота -68.41 высота над уровнем моря 598 м.

В архиве по умолчанию представлена погода в Сан-Хуане за последнюю неделю. Архивные данные за месяц целиком и за предыдущие месяцы, начиная с января 2011 года, Вы можете получить, выбрав интересующий диапазон дат из раскрывающегося списка и нажав кнопку "Ввод!".


*Определитесь, кто Вы:
робот инопланетянин человек

Внимание! Время в таблицах - всемирное. Для получения местного времени необходимо прибавить поправку, которая равна -3 ч.

Смотрите также архив погоды в соседних городах и на ближайших метеорологических станциях:

Погода в Мендосе (Аргентина) (163 км)
Погода в Сан-Мартине (Аргентина) (187 км)
Погода на Пасо Лос Либертадорес (Чили) (228 км)
Погода в Чамикале (Аргентина) (234 км)
Погода в Монте-Патрии (Чили) (255 км)
Погода в Сантьяго Эль-Тололо (Чили) (266 км)
Погода в Викунье (Чили) (267 км)
Погода в Ла-Риохе (Аргентина) (272 км)
Погода в Овалье (Чили) (280 км)
Погода в Сан-Луисе (Аргентина) (283 км)

Пояснения к столбцам:

Ветер - указаны скорость ветра в м/с - средняя за 10 мин, порывы в срок и между сроками (в фигурных скобках) и направление, откуда дует ветер: С - северный, СВ - северо-восточный, В - восточный, ЮВ - юго-восточный, Ю - южный, ЮЗ - юго-западный, З - западный, СЗ - северо-западный.
Видимость - горизонтальная дальность видимости в метрах или километрах. При видимости от 1 до 10 км при отсутствии осадков обычно наблюдается дымка, при ухудшении видимости до 1 км и менее - туман. В сухую погоду видимость может ухудшаться дымом, пылью или мглою.
Явления - указаны атмосферные явления, наблюдавшиеся в срок или в последний час перед сроком; фигурными скобками обозначены явления, наблюдавшиеся между сроками (за 1-3 часа до срока); квадратными скобками обозначены град или гололедные отложения с указанием их диаметра в мм.
Облачность - указаны через наклонную черту общая и нижняя облачность в баллах и высота нижней границы облаков в метрах; квадратными скобками обозначены формы облаков: Ci - перистые, Cs - перисто-слоистые, Cc - перисто-кучевые, Ac - высококучевые, As - высокослоистые, Sc - слоисто-кучевые, Ns - слоисто-дождевые, Cu - кучевые, Cb - кучево-дождевые. Подробнее классификацию облаков см. в Атласе облаков (PDF).
T - Температура воздуха - температура, измеренная на высоте 2 м над землей.
Td - Температура точки росы - температура, при понижении до которой содержащийся в воздухе водяной пар достигнет насыщения.
f - Относительная влажность воздуха - влажноcть воздуха, измеренная на высоте 2 м над землей.
Te - Эффективная температура - температура, которую ощущает одетый по сезону человек в тени. Характеристика душности погоды. При расчете учитывается влияние влажности воздуха и скорости ветра на теплоощущения человека.
Tes - Эффективная температура на солнце - температура, которую ощущает человек, с поправкой на солнечный нагрев. Характеристика знойности погоды. Зависит от высоты солнца над горизонтом, облачности и скорости ветра. Ночью, в пасмурную погоду, а также при ветре 12 м/с и более поправка равна нулю.
P - Атмосферное давление - приведенное к уровню моря атмосферное давление.
Po - Атмосферное давление - измеренное на уровне метеостанции атмосферное давление.
Tmin - Минимальная температура - минимум температуры воздуха на высоте 2 м над землей.
Tmax - Максимальная температура - максимум температуры воздуха на высоте 2 м над землей.
R - Количество осадков - Количество выпавших осадков за период времени, мм. При наведении курсора мыши на число - период времени, за который выпало указанное количество осадков.
R24 - Количество осадков - Количество выпавших осадков за 24 часа, мм.
S - Снежный покров - Высота снежного покрова, см. При наведении курсора мыши на число - состояние снежного покрова и степень покрытия местности в баллах.